SCP
0 0 0 0 0 0 0 0 0 0 0 0 0 0 0 0 0 0 -0 -0 0 0 -0 -0 -0 -0 -0 0 0 0 -0 -0 -0 -0 0 0 0 0
0 0 0 0 0 0 0 0 0 0 0 0 0 0 0 0 0 0 0 0 0 0 0 -0 -0 -0 0 0 0 0 -0 -0 -0 -0 -0 -0 -0 0
0 0 0 0 0 0 0 0 0 0 0 0 0 0 0 0 0 0 0 0 -0 0 0 0 -0 0 0 0 0 0 0 -0 -0 -0 -0 0 -0 -0
0 0 0 0 0 0 0 0 0 0 0 0 0 0 0 0 0 0 0 0 0 0 0 0 0 0 0 0 0 0 0 0 0 0 0 0 0 0
0 0 0 0 0 0 0 0 0 0 0 0 0 0 0 0 0 0 0 0 0 0 0 -0 -0 -0 0 0 0 0 0 0 -0 0 0 0 0 -0
0 -0 0 0 0 0 0 0 0 0 0 0 0 0 0 0 0 0 0 0 0 0 0 0 0 0 -0 0 0 0 0 0 -0 -0 0 0 0 0
0 0 0 0 0 0 0 0 0 0 0 0 0 0 0 0 0 0 0 0 0 0 0 0 0 0 0 0 0 0 0 0 0 0 0 0 0 0
0 0 0 0 0 0 0 0 0 0 0 0 0 0 0 0 0 0 0 0 0 0 0 0 0 0 0 0 0 0 0 0 0 0 0 0 0 0
0 0 0 0 0 0 0 0 0 0 0 0 0 0 0 0 0 0 0 0 0 0 0 0 0 0 0 0 0 0 0 0 0 0 0 0 0 0
0 0 0 0 0 0 0 0 0 0 0 0 0 0 0 0 0 0 0 0 0 0 0 0 0 0 0 0 0 0 0 0 0 0 0 0 0 0
0 0 0 0 0 0 0 0 0 0 0 0 0 0 0 0 0 0 0 0 0 0 0 0 0 0 0 0 0 0 0 0 0 0 0 0 0 0
0 0 0 0 0 0 0 0 0 0 0 0 0 0 0 0 0 0 0 0 0 0 0 0 0 0 0 0 0 0 0 0 0 0 0 0 0 0
0 0 0 0 0 0 0 0 0 0 0 0 0 0 0 0 0 0 0 0 0 0 0 0 0 0 0 0 0 0 0 0 0 0 0 0 0 0
0 0 0 0 0 0 0 0 0 0 0 0 0 0 0 0 0 0 0 0 0 0 0 0 0 0 0 0 0 0 0 0 0 0 0 0 0 0
0 0 0 0 0 0 0 0 0 0 0 0 0 0 0 0 0 0 0 0 0 0 0 0 0 0 0 0 0 0 0 0 0 0 0 0 0 0
0 0 0 0 0 0 0 0 0 0 0 0 0 0 0 0 0 0 0 0 0 0 0 0 0 0 0 0 0 0 0 0 0 0 0 0 0 0
0 0 0 0 0 0 0 0 0 0 0 0 0 0 0 0 0 0 0 0 0 0 0 0 0 0 0 0 0 0 0 0 0 0 0 0 0 0
0 0 0 0 0 0 0 0 0 0 0 0 0 0 0 0 0 0 0 0 0 0 0 0 0 0 0 0 0 0 0 0 0 0 0 0 0 0
0 0 0 0 0 0 0 0 0 0 0 0 0 0 0 0 0 0 0 0 0 0 0 0 0 0 0 0 0 0 0 0 0 0 0 0 0 0
0 0 0 0 0 0 0 0 0 0 0 0 0 0 0 0 0 0 0 0 0 0 0 0 0 0 0 0 0 0 0 0 0 0 0 0 0 0
0 0 0 0 0 0 0 0 0 0 0 0 0 0 0 0 0 0 0 0 0 0 0 0 0 0 0 0 0 0 0 0 0 0 0 0 0 0
0 0 0 0 0 0 0 0 0 0 0 0 0 0 0 0 0 0 0 0 0 0 0 0 0 0 0 0 0 0 0 0 0 0 0 0 0 0
0 0 0 0 0 0 0 0 0 0 0 0 0 0 0 0 0 0 0 0 0 0 0 0 0 0 0 0 0 0 0 0 0 0 0 0 0 0
Wind_Speed_500mb
42 42 46 50 53 50 44 43 44 47 48 38 27 22 22 32 35 40 46 48 51 54 50 48 45 49 53 54 54 55 54 53 52 49 51 49 45 42
34 38 42 44 44 46 51 48 45 46 52 50 30 26 29 31 27 27 30 32 35 39 43 42 41 42 48 53 54 54 57 60 59 58 56 57 55 51
29 35 41 38 39 43 39 45 50 47 48 48 36 30 31 26 23 25 24 26 28 31 34 34 35 40 42 42 43 43 47 55 57 58 55 51 48 49
23 27 29 37 47 47 40 40 48 46 49 49 42 36 33 29 17 23 29 31 28 31 35 35 33 30 30 37 42 44 45 48 54 57 56 56 52 49
21 21 31 33 37 50 43 39 39 44 49 50 44 39 30 25 31 26 30 38 35 30 30 34 38 38 33 31 33 37 35 36 42 48 49 48 47 49
9 21 26 31 28 38 44 43 46 49 49 49 45 36 34 27 31 40 37 35 31 28 24 25 27 28 32 39 33 30 33 31 32 35 39 44 47 48
20 30 31 28 28 32 36 41 42 47 49 50 49 44 40 38 39 30 34 33 33 35 34 32 32 36 34 33 34 36 33 32 34 37 39 42 44 47
30 35 35 31 27 21 21 27 35 37 39 43 48 48 43 39 34 35 37 36 36 36 42 44 38 37 40 38 35 41 46 47 46 47 47 48 48 46
28 32 37 35 34 35 29 27 31 36 43 45 53 51 49 43 38 38 40 42 42 31 30 32 38 39 37 41 44 44 45 44 45 44 44 43 47 51
29 29 30 28 36 40 41 39 39 36 38 41 46 47 51 46 48 47 40 37 41 43 40 39 37 40 38 35 33 34 41 47 50 49 46 49 48 48
26 22 23 27 25 30 42 47 46 48 41 39 41 45 46 48 47 50 50 46 43 41 42 45 43 36 34 35 34 34 35 32 30 31 33 39 45 51
24 24 24 25 23 26 34 36 37 33 32 38 44 43 40 42 44 50 56 58 55 49 45 46 43 38 37 41 39 36 31 32 34 36 34 38 41 42
20 29 31 33 33 30 29 30 35 40 39 39 37 38 38 40 43 46 50 57 63 65 55 46 42 39 38 40 30 28 32 36 36 35 34 37 38 40
34 35 30 33 41 40 38 37 39 43 42 38 40 41 43 44 44 49 50 49 59 67 65 58 57 49 44 43 45 40 40 39 37 35 36 32 29 28
39 42 49 46 41 44 44 40 39 34 27 31 38 42 40 42 49 54 53 63 64 61 66 67 60 46 43 44 44 45 43 41 36 32 27 26 26 23
39 40 37 41 44 47 48 45 43 44 52 59 60 59 57 55 52 51 54 53 63 70 70 69 73 61 51 47 42 44 42 40 36 33 27 23 26 28
46 46 47 49 48 49 49 48 50 55 58 57 57 61 61 52 52 48 45 49 56 59 64 70 64 58 50 46 45 45 45 44 38 29 31 27 26 27
50 51 53 55 57 54 53 56 58 56 54 53 54 55 55 50 50 49 43 48 56 58 62 66 82 76 64 57 49 46 50 48 43 38 35 35 35 33
40 35 40 44 47 48 48 51 54 54 55 54 52 54 53 52 47 50 44 50 56 61 64 69 77 72 70 61 55 53 54 51 49 47 39 39 33 30
42 41 40 39 41 43 43 42 42 43 46 47 46 49 48 49 50 47 48 51 57 53 62 70 78 87 83 69 62 53 54 53 53 53 47 44 38 34
48 50 49 46 44 44 42 40 40 44 49 50 49 52 49 45 46 46 48 50 52 55 52 63 51 71 73 55 43 46 51 54 54 53 50 54 44 44
59 60 62 62 58 54 51 50 49 48 47 46 46 45 47 43 46 47 46 48 50 52 60 66 53 52 62 66 59 54 50 46 49 47 47 53 54 49
59 56 48 46 46 48 51 55 54 52 50 49 48 48 45 49 47 50 49 46 52 53 49 55 56 56 72 78 72 68 65 60 56 57 53 52 45 38
Wind_Direction_500mb
260 265 261 258 258 261 260 262 261 277 285 289 301 294 278 269 267 259 248 240 243 243 247 255 259 252 252 252 255 255 256 255 255 255 255 255 257 258
263 260 261 264 267 266 262 263 257 263 275 283 287 301 287 290 271 254 248 247 247 242 248 254 259 252 253 254 255 254 255 253 251 250 252 255 257 254
261 271 258 251 261 259 259 260 258 256 263 284 283 292 296 289 254 252 241 242 234 238 251 256 258 251 248 251 246 253 260 252 248 247 248 247 251 247
255 273 272 257 258 254 255 253 259 258 253 270 275 284 292 274 251 244 244 241 245 248 256 256 255 250 251 254 253 261 262 252 246 246 247 246 248 245
258 257 258 258 253 248 250 252 249 248 256 264 274 277 276 268 255 254 238 238 250 256 253 248 249 249 250 253 264 260 256 251 244 242 240 238 240 242
243 250 254 257 257 253 252 255 248 243 249 255 260 264 268 268 259 257 242 247 252 254 240 245 249 242 249 261 261 254 244 242 240 236 236 240 241 242
275 269 269 268 269 263 256 252 246 254 249 250 248 256 259 260 262 262 261 255 258 248 243 247 245 243 249 254 254 252 253 249 248 246 246 247 247 247
257 260 263 264 261 260 259 253 251 248 246 245 247 252 257 258 265 257 256 262 264 254 252 251 244 248 261 266 262 257 253 255 255 252 251 250 249 249
263 266 263 256 252 251 260 264 261 253 253 255 253 253 258 259 265 258 256 253 253 262 253 244 246 255 264 267 269 258 252 251 249 247 249 252 250 248
273 273 272 267 248 250 254 254 253 254 256 254 255 261 258 253 259 257 257 253 249 250 252 246 246 264 269 265 267 256 254 255 255 256 257 252 247 246
270 270 277 270 260 255 256 258 259 261 262 257 259 261 261 255 253 248 249 252 248 242 238 246 256 268 269 265 258 261 267 254 245 244 248 247 250 252
273 271 276 281 278 271 264 266 267 274 267 260 264 270 267 256 254 252 250 251 251 248 239 244 253 258 268 264 255 257 255 242 246 259 257 257 258 252
287 269 269 267 271 278 279 278 278 275 272 273 273 271 268 266 265 267 251 248 249 253 251 256 248 243 257 260 259 248 248 249 253 255 255 257 261 251
300 292 294 278 265 264 271 279 285 282 275 271 275 278 277 272 272 273 272 265 256 259 259 252 251 252 257 251 248 251 251 250 254 255 257 253 244 240
280 289 291 289 280 271 272 275 281 269 269 280 288 290 290 289 279 272 269 258 256 257 253 249 246 247 248 246 248 252 254 246 243 247 239 232 228 222
275 270 273 276 279 273 267 265 271 270 274 281 286 287 285 287 284 281 278 274 259 249 250 249 249 245 238 237 243 247 246 235 235 229 222 221 212 208
272 272 269 266 270 274 274 277 278 277 277 282 286 285 282 278 277 281 276 269 255 254 251 244 237 226 228 239 243 238 232 228 227 224 222 209 198 193
273 271 270 268 268 270 272 276 275 273 276 283 289 288 279 273 277 283 269 269 255 252 253 252 232 218 228 235 237 232 227 225 219 218 215 212 203 198
280 281 273 270 270 272 275 274 275 273 274 274 279 283 280 270 271 275 265 263 266 255 248 246 228 227 219 218 223 224 225 218 212 209 212 210 215 213
284 285 283 281 278 277 277 277 274 273 275 275 275 280 282 274 266 264 267 261 263 261 253 248 249 239 218 215 217 215 211 209 212 210 204 205 207 208
293 288 287 286 281 279 279 275 274 274 273 274 274 276 270 275 262 259 268 257 258 261 255 247 261 230 208 217 223 216 208 215 219 218 207 203 198 192
302 293 286 286 283 279 276 278 277 274 273 271 272 276 268 269 260 255 268 259 255 253 247 244 227 215 209 209 206 201 199 213 224 218 216 208 199 193
295 291 287 288 286 284 278 273 274 273 271 268 273 271 268 267 260 250 261 265 256 253 244 230 228 226 221 209 208 203 198 200 213 210 204 205 206 208
Wind_Speed_850mb
42 42 46 50 53 50 44 43 44 47 48 38 27 22 22 32 35 40 46 48 51 54 50 48 45 49 53 54 54 55 54 53 52 49 51 49 45 42
34 38 42 44 44 46 51 48 45 46 52 50 30 26 29 31 27 27 30 32 35 39 43 42 41 42 48 53 54 54 57 60 59 58 56 57 55 51
29 35 41 38 39 43 39 45 50 47 48 48 36 30 31 26 23 25 24 26 28 31 34 34 35 40 42 42 43 43 47 55 57 58 55 51 48 49
23 27 29 37 47 47 40 40 48 46 49 49 42 36 33 29 17 23 29 31 28 31 35 35 33 30 30 37 42 44 45 48 54 57 56 56 52 49
21 21 31 33 37 50 43 39 39 44 49 50 44 39 30 25 31 26 30 38 35 30 30 34 38 38 33 31 33 37 35 36 42 48 49 48 47 49
9 21 26 31 28 38 44 43 46 49 49 49 45 36 34 27 31 40 37 35 31 28 24 25 27 28 32 39 33 30 33 31 32 35 39 44 47 48
20 30 31 28 28 32 36 41 42 47 49 50 49 44 40 38 39 30 34 33 33 35 34 32 32 36 34 33 34 36 33 32 34 37 39 42 44 47
30 35 35 31 27 21 21 27 35 37 39 43 48 48 43 39 34 35 37 36 36 36 42 44 38 37 40 38 35 41 46 47 46 47 47 48 48 46
28 32 37 35 34 35 29 27 31 36 43 45 53 51 49 43 38 38 40 42 42 31 30 32 38 39 37 41 44 44 45 44 45 44 44 43 47 51
29 29 30 28 36 40 41 39 39 36 38 41 46 47 51 46 48 47 40 37 41 43 40 39 37 40 38 35 33 34 41 47 50 49 46 49 48 48
26 22 23 27 25 30 42 47 46 48 41 39 41 45 46 48 47 50 50 46 43 41 42 45 43 36 34 35 34 34 35 32 30 31 33 39 45 51
24 24 24 25 23 26 34 36 37 33 32 38 44 43 40 42 44 50 56 58 55 49 45 46 43 38 37 41 39 36 31 32 34 36 34 38 41 42
20 29 31 33 33 30 29 30 35 40 39 39 37 38 38 40 43 46 50 57 63 65 55 46 42 39 38 40 30 28 32 36 36 35 34 37 38 40
34 35 30 33 41 40 38 37 39 43 42 38 40 41 43 44 44 49 50 49 59 67 65 58 57 49 44 43 45 40 40 39 37 35 36 32 29 28
39 42 49 46 41 44 44 40 39 34 27 31 38 42 40 42 49 54 53 63 64 61 66 67 60 46 43 44 44 45 43 41 36 32 27 26 26 23
39 40 37 41 44 47 48 45 43 44 52 59 60 59 57 55 52 51 54 53 63 70 70 69 73 61 51 47 42 44 42 40 36 33 27 23 26 28
46 46 47 49 48 49 49 48 50 55 58 57 57 61 61 52 52 48 45 49 56 59 64 70 64 58 50 46 45 45 45 44 38 29 31 27 26 27
50 51 53 55 57 54 53 56 58 56 54 53 54 55 55 50 50 49 43 48 56 58 62 66 82 76 64 57 49 46 50 48 43 38 35 35 35 33
40 35 40 44 47 48 48 51 54 54 55 54 52 54 53 52 47 50 44 50 56 61 64 69 77 72 70 61 55 53 54 51 49 47 39 39 33 30
42 41 40 39 41 43 43 42 42 43 46 47 46 49 48 49 50 47 48 51 57 53 62 70 78 87 83 69 62 53 54 53 53 53 47 44 38 34
48 50 49 46 44 44 42 40 40 44 49 50 49 52 49 45 46 46 48 50 52 55 52 63 51 71 73 55 43 46 51 54 54 53 50 54 44 44
59 60 62 62 58 54 51 50 49 48 47 46 46 45 47 43 46 47 46 48 50 52 60 66 53 52 62 66 59 54 50 46 49 47 47 53 54 49
59 56 48 46 46 48 51 55 54 52 50 49 48 48 45 49 47 50 49 46 52 53 49 55 56 56 72 78 72 68 65 60 56 57 53 52 45 38
Wind_Direction_850mb
260 265 261 258 258 261 260 262 261 277 285 289 301 294 278 269 267 259 248 240 243 243 247 255 259 252 252 252 255 255 256 255 255 255 255 255 257 258
263 260 261 264 267 266 262 263 257 263 275 283 287 301 287 290 271 254 248 247 247 242 248 254 259 252 253 254 255 254 255 253 251 250 252 255 257 254
261 271 258 251 261 259 259 260 258 256 263 284 283 292 296 289 254 252 241 242 234 238 251 256 258 251 248 251 246 253 260 252 248 247 248 247 251 247
255 273 272 257 258 254 255 253 259 258 253 270 275 284 292 274 251 244 244 241 245 248 256 256 255 250 251 254 253 261 262 252 246 246 247 246 248 245
258 257 258 258 253 248 250 252 249 248 256 264 274 277 276 268 255 254 238 238 250 256 253 248 249 249 250 253 264 260 256 251 244 242 240 238 240 242
243 250 254 257 257 253 252 255 248 243 249 255 260 264 268 268 259 257 242 247 252 254 240 245 249 242 249 261 261 254 244 242 240 236 236 240 241 242
275 269 269 268 269 263 256 252 246 254 249 250 248 256 259 260 262 262 261 255 258 248 243 247 245 243 249 254 254 252 253 249 248 246 246 247 247 247
257 260 263 264 261 260 259 253 251 248 246 245 247 252 257 258 265 257 256 262 264 254 252 251 244 248 261 266 262 257 253 255 255 252 251 250 249 249
263 266 263 256 252 251 260 264 261 253 253 255 253 253 258 259 265 258 256 253 253 262 253 244 246 255 264 267 269 258 252 251 249 247 249 252 250 248
273 273 272 267 248 250 254 254 253 254 256 254 255 261 258 253 259 257 257 253 249 250 252 246 246 264 269 265 267 256 254 255 255 256 257 252 247 246
270 270 277 270 260 255 256 258 259 261 262 257 259 261 261 255 253 248 249 252 248 242 238 246 256 268 269 265 258 261 267 254 245 244 248 247 250 252
273 271 276 281 278 271 264 266 267 274 267 260 264 270 267 256 254 252 250 251 251 248 239 244 253 258 268 264 255 257 255 242 246 259 257 257 258 252
287 269 269 267 271 278 279 278 278 275 272 273 273 271 268 266 265 267 251 248 249 253 251 256 248 243 257 260 259 248 248 249 253 255 255 257 261 251
300 292 294 278 265 264 271 279 285 282 275 271 275 278 277 272 272 273 272 265 256 259 259 252 251 252 257 251 248 251 251 250 254 255 257 253 244 240
280 289 291 289 280 271 272 275 281 269 269 280 288 290 290 289 279 272 269 258 256 257 253 249 246 247 248 246 248 252 254 246 243 247 239 232 228 222
275 270 273 276 279 273 267 265 271 270 274 281 286 287 285 287 284 281 278 274 259 249 250 249 249 245 238 237 243 247 246 235 235 229 222 221 212 208
272 272 269 266 270 274 274 277 278 277 277 282 286 285 282 278 277 281 276 269 255 254 251 244 237 226 228 239 243 238 232 228 227 224 222 209 198 193
273 271 270 268 268 270 272 276 275 273 276 283 289 288 279 273 277 283 269 269 255 252 253 252 232 218 228 235 237 232 227 225 219 218 215 212 203 198
280 281 273 270 270 272 275 274 275 273 274 274 279 283 280 270 271 275 265 263 266 255 248 246 228 227 219 218 223 224 225 218 212 209 212 210 215 213
284 285 283 281 278 277 277 277 274 273 275 275 275 280 282 274 266 264 267 261 263 261 253 248 249 239 218 215 217 215 211 209 212 210 204 205 207 208
293 288 287 286 281 279 279 275 274 274 273 274 274 276 270 275 262 259 268 257 258 261 255 247 261 230 208 217 223 216 208 215 219 218 207 203 198 192
302 293 286 286 283 279 276 278 277 274 273 271 272 276 268 269 260 255 268 259 255 253 247 244 227 215 209 209 206 201 199 213 224 218 216 208 199 193
295 291 287 288 286 284 278 273 274 273 271 268 273 271 268 267 260 250 261 265 256 253 244 230 228 226 221 209 208 203 198 200 213 210 204 205 206 208